Tracking 17267 objects as of 31-August-2015
HD Live streaming from Space Station

FENGYUN 2B

Track FENGYUN 2B now!
FENGYUN 2B is classified as:


NORAD ID: 26382
Int'l Code: 2000-032A
Perigee: 35,833.5 km
Apogee: 35,870.1 km
Inclination: 9.0 °
Period: 1,439.1 minutes
Semi major axis: 42222 km
RCS: 15.8489 m2 (large)
Launch date: June 25, 2000
Source: People's Republic of China (PRC)

Scanning radiometer, a cloud mapper, water vapor scanner to provide timely weather data; provides hoursly full-disk images of Earth in visible and infrared wavelengths.
Your satellite tracking list
Your tracking list is empty





NASA's NSSDC Master Catalog

Two Line Element Set (TLE):
1 26382U 00032A   15240.90683999 -.00000067 +00000-0 +00000-0 0  9995
2 26382 009.0117 046.4332 0004329 177.3468 154.4197 01.00065118055437

Source of the keplerian elements: AFSPC

N2YO: 263